Time,TemperatureF,DewpointF,PressureIn,WindDirection,WindDirectionDegrees,WindSpeedMPH,WindSpeedGustMPH,Humidity,HourlyPrecipIn,Conditions,Clouds,dailyrainin,SoftwareType,DateUTC
2013-03-22 00:05:00,31.6,18.9,29.96,East,90,1.0,6.0,59,0.00,,,0.00,Wunderground v.1.15,2013-03-22 05:05:00,
2013-03-22 00:10:00,31.5,18.8,29.97,East,90,0.0,6.0,59,0.00,,,0.00,Wunderground v.1.15,2013-03-22 05:10:00,
2013-03-22 00:15:00,31.5,19.2,29.97,East,90,0.0,6.0,60,0.00,,,0.00,Wunderground v.1.15,2013-03-22 05:15:00,
2013-03-22 00:22:00,31.4,19.1,29.96,East,90,0.0,6.0,60,0.00,,,0.00,Wunderground v.1.15,2013-03-22 05:22:00,
2013-03-22 00:27:00,31.4,19.1,29.96,East,90,0.0,6.0,60,0.00,,,0.00,Wunderground v.1.15,2013-03-22 05:27:00,
2013-03-22 00:32:00,31.4,19.1,29.97,East,90,0.0,6.0,60,0.00,,,0.00,Wunderground v.1.15,2013-03-22 05:32:00,
2013-03-22 00:39:00,31.5,19.2,29.97,East,90,0.0,6.0,60,0.00,,,0.00,Wunderground v.1.15,2013-03-22 05:39:00,
2013-03-22 00:44:00,31.5,19.6,29.96,East,85,1.0,6.0,61,0.00,,,0.00,Wunderground v.1.15,2013-03-22 05:44:00,
2013-03-22 00:50:00,31.5,19.6,29.97,ENE,75,1.0,1.0,61,0.00,,,0.00,Wunderground v.1.15,2013-03-22 05:50:00,
2013-03-22 00:56:00,31.5,20.0,29.97,East,99,0.0,6.0,62,0.00,,,0.00,Wunderground v.1.15,2013-03-22 05:56:00,
2013-03-22 01:01:00,31.6,20.1,29.97,ENE,68,1.0,6.0,62,0.00,,,0.00,Wunderground v.1.15,2013-03-22 06:01:00,
2013-03-22 01:07:00,31.6,20.1,29.97,ENE,62,1.0,6.0,62,0.00,,,0.00,Wunderground v.1.15,2013-03-22 06:07:00,
2013-03-22 01:13:00,31.6,20.0,29.97,ENE,72,1.0,2.0,62,0.00,,,0.00,weatherlink.com 1.10,2013-03-22 06:13:00,
2013-03-22 01:18:00,31.6,20.4,29.97,East,79,1.0,6.0,63,0.00,,,0.00,Wunderground v.1.15,2013-03-22 06:18:00,
2013-03-22 01:24:00,31.6,20.4,29.97,East,89,1.0,6.0,63,0.00,,,0.00,Wunderground v.1.15,2013-03-22 06:24:00,
2013-03-22 01:29:00,31.5,20.0,29.97,East,89,1.0,3.0,63,0.00,,,0.00,weatherlink.com 1.10,2013-03-22 06:29:00,
2013-03-22 01:35:00,31.5,20.3,29.97,East,89,1.0,6.0,63,0.00,,,0.00,Wunderground v.1.15,2013-03-22 06:35:00,
2013-03-22 01:41:00,31.5,20.3,29.98,East,89,2.0,6.0,63,0.00,,,0.00,Wunderground v.1.15,2013-03-22 06:41:00,
2013-03-22 01:47:00,31.4,20.6,29.98,East,89,2.0,6.0,64,0.00,,,0.00,Wunderground v.1.15,2013-03-22 06:47:00,
2013-03-22 01:52:00,31.4,20.6,29.98,East,89,1.0,6.0,64,0.00,,,0.00,Wunderground v.1.15,2013-03-22 06:52:00,
2013-03-22 01:57:00,31.4,20.0,29.98,East,89,0.0,2.0,64,0.00,,,0.00,weatherlink.com 1.10,2013-03-22 06:57:00,
2013-03-22 02:03:00,31.4,20.6,29.98,East,89,1.0,6.0,64,0.00,,,0.00,Wunderground v.1.15,2013-03-22 07:03:00,
2013-03-22 02:08:00,31.4,20.6,29.98,East,92,1.0,6.0,64,0.00,,,0.00,Wunderground v.1.15,2013-03-22 07:08:00,
2013-03-22 02:13:00,31.4,20.2,29.98,East,81,1.0,6.0,63,0.00,,,0.00,Wunderground v.1.15,2013-03-22 07:13:00,
2013-03-22 02:18:00,31.4,20.2,29.98,ENE,72,2.0,6.0,63,0.00,,,0.00,Wunderground v.1.15,2013-03-22 07:18:00,
2013-03-22 02:24:00,31.4,20.6,29.98,East,87,2.0,6.0,64,0.00,,,0.00,Wunderground v.1.15,2013-03-22 07:24:00,
2013-03-22 02:30:00,31.4,20.2,29.98,East,79,2.0,6.0,63,0.00,,,0.00,Wunderground v.1.15,2013-03-22 07:30:00,
2013-03-22 02:37:00,31.4,20.2,29.98,East,85,2.0,6.0,63,0.00,,,0.00,Wunderground v.1.15,2013-03-22 07:37:00,
2013-03-22 02:43:00,31.3,20.0,29.98,East,84,2.0,7.0,63,0.00,,,0.00,weatherlink.com 1.10,2013-03-22 07:43:00,
2013-03-22 02:49:00,31.3,20.2,29.98,ENE,75,2.0,6.0,63,0.00,,,0.00,Wunderground v.1.15,2013-03-22 07:49:00,
2013-03-22 02:55:00,31.2,19.7,29.98,East,88,2.0,6.0,62,0.00,,,0.00,Wunderground v.1.15,2013-03-22 07:55:00,
2013-03-22 03:02:00,31.2,19.7,29.98,East,99,3.0,6.0,62,0.00,,,0.00,Wunderground v.1.15,2013-03-22 08:02:00,
2013-03-22 03:07:00,31.2,19.3,29.98,East,95,3.0,6.0,61,0.00,,,0.00,Wunderground v.1.15,2013-03-22 08:07:00,
2013-03-22 03:12:00,31.1,19.2,29.98,ENE,75,3.0,6.0,61,0.00,,,0.00,Wunderground v.1.15,2013-03-22 08:12:00,
2013-03-22 03:18:00,31.1,19.2,29.98,East,82,3.0,6.0,61,0.00,,,0.00,Wunderground v.1.15,2013-03-22 08:18:00,
2013-03-22 03:24:00,30.9,19.4,29.98,East,80,3.0,6.0,62,0.00,,,0.00,Wunderground v.1.15,2013-03-22 08:24:00,
2013-03-22 03:31:00,30.8,19.3,29.98,East,96,2.0,6.0,62,0.00,,,0.00,Wunderground v.1.15,2013-03-22 08:31:00,
2013-03-22 03:36:00,30.7,19.6,29.98,East,81,1.0,6.0,63,0.00,,,0.00,Wunderground v.1.15,2013-03-22 08:36:00,
2013-03-22 03:42:00,30.5,19.0,29.98,East,88,2.0,6.0,62,0.00,,,0.00,Wunderground v.1.15,2013-03-22 08:42:00,
2013-03-22 03:47:00,30.4,19.3,29.98,East,89,3.0,6.0,63,0.00,,,0.00,Wunderground v.1.15,2013-03-22 08:47:00,
2013-03-22 03:52:00,30.2,19.1,29.98,ENE,74,3.0,6.0,63,0.00,,,0.00,Wunderground v.1.15,2013-03-22 08:52:00,
2013-03-22 03:58:00,30.1,18.6,29.98,East,83,4.0,7.0,62,0.00,,,0.00,Wunderground v.1.15,2013-03-22 08:58:00,
2013-03-22 04:03:00,29.9,18.8,29.97,East,79,4.0,6.0,63,0.00,,,0.00,Wunderground v.1.15,2013-03-22 09:03:00,
2013-03-22 04:10:00,29.8,18.0,29.97,East,86,7.0,8.0,63,0.00,,,0.00,weatherlink.com 1.10,2013-03-22 09:10:00,
2013-03-22 04:16:00,29.7,19.0,29.97,NE,56,1.0,8.0,64,0.00,,,0.00,weatherlink.com 1.10,2013-03-22 09:16:00,
2013-03-22 04:21:00,29.7,19.0,29.97,ENE,73,2.0,6.0,64,0.00,,,0.00,Wunderground v.1.15,2013-03-22 09:21:00,
2013-03-22 04:26:00,29.6,18.9,29.97,ENE,62,2.0,6.0,64,0.00,,,0.00,Wunderground v.1.15,2013-03-22 09:26:00,
2013-03-22 04:31:00,29.6,18.9,29.97,East,87,1.0,6.0,64,0.00,,,0.00,Wunderground v.1.15,2013-03-22 09:31:00,
2013-03-22 04:38:00,29.4,18.7,29.97,ENE,77,1.0,6.0,64,0.00,,,0.00,Wunderground v.1.15,2013-03-22 09:38:00,
2013-03-22 04:43:00,29.4,18.7,29.96,East,85,1.0,6.0,64,0.00,,,0.00,Wunderground v.1.15,2013-03-22 09:43:00,
2013-03-22 04:50:00,29.3,18.3,29.96,ENE,76,1.0,1.0,63,0.00,,,0.00,Wunderground v.1.15,2013-03-22 09:50:00,
2013-03-22 04:55:00,29.3,18.3,29.96,ENE,76,0.0,6.0,63,0.00,,,0.00,Wunderground v.1.15,2013-03-22 09:55:00,
2013-03-22 05:01:00,29.1,17.0,29.96,East,85,0.0,3.0,62,0.00,,,0.00,weatherlink.com 1.10,2013-03-22 10:01:00,
2013-03-22 05:06:00,29.0,18.0,29.96,East,81,1.0,6.0,63,0.00,,,0.00,Wunderground v.1.15,2013-03-22 10:06:00,
2013-03-22 05:11:00,28.9,17.9,29.96,ESE,106,0.0,6.0,63,0.00,,,0.00,Wunderground v.1.15,2013-03-22 10:11:00,
2013-03-22 05:17:00,28.8,17.8,29.96,East,89,1.0,6.0,63,0.00,,,0.00,Wunderground v.1.15,2013-03-22 10:17:00,
2013-03-22 05:23:00,28.8,17.8,29.96,East,87,1.0,6.0,63,0.00,,,0.00,Wunderground v.1.15,2013-03-22 10:23:00,
2013-03-22 05:29:00,28.8,18.1,29.96,East,100,0.0,6.0,64,0.00,,,0.00,Wunderground v.1.15,2013-03-22 10:29:00,
2013-03-22 05:35:00,28.7,18.1,29.97,ENE,74,0.0,6.0,64,0.00,,,0.00,Wunderground v.1.15,2013-03-22 10:35:00,
2013-03-22 05:41:00,28.7,18.1,29.97,ENE,70,0.0,6.0,64,0.00,,,0.00,Wunderground v.1.15,2013-03-22 10:41:00,
2013-03-22 05:47:00,28.6,18.0,29.97,ESE,106,1.0,6.0,64,0.00,,,0.00,Wunderground v.1.15,2013-03-22 10:47:00,
2013-03-22 05:52:00,28.6,18.3,29.97,ENE,70,1.0,6.0,65,0.00,,,0.00,Wunderground v.1.15,2013-03-22 10:52:00,
2013-03-22 05:58:00,28.6,18.3,29.97,East,89,2.0,6.0,65,0.00,,,0.00,Wunderground v.1.15,2013-03-22 10:58:00,
2013-03-22 06:04:00,28.5,18.2,29.97,ESE,106,2.0,6.0,65,0.00,,,0.00,Wunderground v.1.15,2013-03-22 11:04:00,
2013-03-22 06:11:00,28.5,18.2,29.97,East,83,2.0,6.0,65,0.00,,,0.00,Wunderground v.1.15,2013-03-22 11:11:00,
2013-03-22 06:18:00,28.5,18.6,29.97,ENE,72,3.0,6.0,66,0.00,,,0.00,Wunderground v.1.15,2013-03-22 11:18:00,
2013-03-22 06:24:00,28.5,18.9,29.97,East,79,3.0,6.0,67,0.00,,,0.00,Wunderground v.1.15,2013-03-22 11:24:00,
2013-03-22 06:29:00,28.5,19.3,29.97,East,97,3.0,6.0,68,0.00,,,0.00,Wunderground v.1.15,2013-03-22 11:29:00,
2013-03-22 06:35:00,28.3,19.4,29.97,East,86,3.0,7.0,69,0.00,,,0.00,Wunderground v.1.15,2013-03-22 11:35:00,
2013-03-22 06:40:00,28.2,19.7,29.97,ENE,64,3.0,3.0,70,0.00,,,0.00,Wunderground v.1.15,2013-03-22 11:40:00,
2013-03-22 06:47:00,28.0,19.8,29.97,ENE,77,2.0,6.0,71,0.00,,,0.00,Wunderground v.1.15,2013-03-22 11:47:00,
2013-03-22 06:53:00,27.9,20.0,29.97,ENE,73,2.0,6.0,72,0.00,,,0.00,Wunderground v.1.15,2013-03-22 11:53:00,
2013-03-22 06:58:00,27.8,19.9,29.96,NE,56,2.0,6.0,72,0.00,,,0.00,Wunderground v.1.15,2013-03-22 11:58:00,
2013-03-22 07:03:00,27.7,19.8,29.96,East,85,1.0,6.0,72,0.00,,,0.00,Wunderground v.1.15,2013-03-22 12:03:00,
2013-03-22 07:08:00,27.6,19.8,29.97,East,86,1.0,6.0,72,0.00,,,0.00,Wunderground v.1.15,2013-03-22 12:08:00,
2013-03-22 07:14:00,27.4,19.6,29.96,NE,45,1.0,6.0,72,0.00,,,0.00,Wunderground v.1.15,2013-03-22 12:14:00,
2013-03-22 07:19:00,27.3,19.5,29.97,East,91,2.0,6.0,72,0.00,,,0.00,Wunderground v.1.15,2013-03-22 12:19:00,
2013-03-22 07:25:00,27.2,19.4,29.97,East,87,3.0,6.0,72,0.00,,,0.00,Wunderground v.1.15,2013-03-22 12:25:00,
2013-03-22 07:31:00,27.1,20.0,29.97,ENE,71,1.0,8.0,73,0.00,,,0.00,weatherlink.com 1.10,2013-03-22 12:31:00,
2013-03-22 07:36:00,27.1,19.6,29.97,East,79,2.0,6.0,73,0.00,,,0.00,Wunderground v.1.15,2013-03-22 12:36:00,
2013-03-22 07:42:00,27.1,19.6,29.97,East,89,1.0,6.0,73,0.00,,,0.00,Wunderground v.1.15,2013-03-22 12:42:00,
2013-03-22 07:47:00,27.0,19.5,29.97,East,84,1.0,6.0,73,0.00,,,0.00,Wunderground v.1.15,2013-03-22 12:47:00,
2013-03-22 07:54:00,27.0,19.5,29.97,East,98,3.0,6.0,73,0.00,,,0.00,Wunderground v.1.15,2013-03-22 12:54:00,
2013-03-22 07:59:00,27.0,19.5,29.97,East,81,2.0,6.0,73,0.00,,,0.00,Wunderground v.1.15,2013-03-22 12:59:00,
2013-03-22 08:05:00,27.1,19.6,29.97,East,90,2.0,6.0,73,0.00,,,0.00,Wunderground v.1.15,2013-03-22 13:05:00,
2013-03-22 08:10:00,27.1,19.9,29.96,East,87,3.0,6.0,74,0.00,,,0.00,Wunderground v.1.15,2013-03-22 13:10:00,
2013-03-22 08:16:00,27.2,19.7,29.96,East,93,4.0,8.0,73,0.00,,,0.00,Wunderground v.1.15,2013-03-22 13:16:00,
2013-03-22 08:22:00,27.3,19.8,29.96,East,85,5.0,6.0,73,0.00,,,0.00,Wunderground v.1.15,2013-03-22 13:22:00,
2013-03-22 08:28:00,27.4,19.9,29.96,East,85,4.0,6.0,73,0.00,,,0.00,Wunderground v.1.15,2013-03-22 13:28:00,
2013-03-22 08:33:00,27.4,19.0,29.96,East,93,4.0,9.0,72,0.00,,,0.00,weatherlink.com 1.10,2013-03-22 13:33:00,
2013-03-22 08:38:00,27.6,19.8,29.96,East,84,4.0,9.0,72,0.00,,,0.00,Wunderground v.1.15,2013-03-22 13:38:00,
2013-03-22 08:44:00,27.6,19.8,29.96,East,79,6.0,8.0,72,0.00,,,0.00,Wunderground v.1.15,2013-03-22 13:44:00,
2013-03-22 08:49:00,27.6,19.8,29.96,ENE,76,6.0,8.0,72,0.00,,,0.00,Wunderground v.1.15,2013-03-22 13:49:00,
2013-03-22 08:55:00,27.7,19.5,29.97,East,93,7.0,9.0,71,0.00,,,0.00,Wunderground v.1.15,2013-03-22 13:55:00,
2013-03-22 09:01:00,27.8,19.6,29.96,East,87,5.0,6.0,71,0.00,,,0.00,Wunderground v.1.15,2013-03-22 14:01:00,
2013-03-22 09:07:00,27.9,19.7,29.96,East,85,4.0,7.0,71,0.00,,,0.00,Wunderground v.1.15,2013-03-22 14:07:00,
2013-03-22 09:12:00,27.9,19.4,29.97,ESE,106,4.0,6.0,70,0.00,,,0.00,Wunderground v.1.15,2013-03-22 14:12:00,
2013-03-22 09:18:00,27.9,19.0,29.97,East,90,1.0,8.0,70,0.00,,,0.00,weatherlink.com 1.10,2013-03-22 14:18:00,
2013-03-22 09:23:00,28.0,19.5,29.97,East,79,2.0,6.0,70,0.00,,,0.00,Wunderground v.1.15,2013-03-22 14:23:00,
2013-03-22 09:29:00,28.0,19.8,29.97,East,84,2.0,6.0,71,0.00,,,0.00,Wunderground v.1.15,2013-03-22 14:29:00,
2013-03-22 09:34:00,28.0,19.5,29.97,East,98,2.0,6.0,70,0.00,,,0.00,Wunderground v.1.15,2013-03-22 14:34:00,
2013-03-22 09:40:00,28.1,19.9,29.97,ESE,104,1.0,6.0,71,0.00,,,0.00,Wunderground v.1.15,2013-03-22 14:40:00,
2013-03-22 09:45:00,28.3,19.8,29.97,East,81,1.0,6.0,70,0.00,,,0.00,Wunderground v.1.15,2013-03-22 14:45:00,
2013-03-22 09:51:00,28.4,19.5,29.97,East,99,2.0,6.0,69,0.00,,,0.00,Wunderground v.1.15,2013-03-22 14:51:00,
2013-03-22 10:00:00,28.4,19.5,29.97,ESE,109,2.0,2.0,69,0.00,,,0.00,Wunderground v.1.15,2013-03-22 15:00:00,
2013-03-22 10:05:00,28.5,19.6,29.97,East,91,2.0,6.0,69,0.00,,,0.00,Wunderground v.1.15,2013-03-22 15:05:00,
2013-03-22 10:11:00,28.7,19.8,29.98,ESE,104,2.0,6.0,69,0.00,,,0.00,Wunderground v.1.15,2013-03-22 15:11:00,
2013-03-22 10:18:00,28.7,20.0,29.98,East,97,1.0,4.0,69,0.00,,,0.00,weatherlink.com 1.10,2013-03-22 15:18:00,
2013-03-22 10:23:00,28.7,19.8,29.98,East,100,1.0,6.0,69,0.00,,,0.00,Wunderground v.1.15,2013-03-22 15:23:00,
2013-03-22 10:29:00,28.8,19.9,29.98,ESE,120,1.0,6.0,69,0.00,,,0.00,Wunderground v.1.15,2013-03-22 15:29:00,
2013-03-22 10:34:00,28.9,20.0,29.98,East,99,1.0,6.0,69,0.00,,,0.00,Wunderground v.1.15,2013-03-22 15:34:00,
2013-03-22 10:40:00,29.1,19.8,29.97,East,86,1.0,1.0,68,0.00,,,0.00,Wunderground v.1.15,2013-03-22 15:40:00,
2013-03-22 10:46:00,29.2,19.6,29.98,East,92,1.0,6.0,67,0.00,,,0.00,Wunderground v.1.15,2013-03-22 15:46:00,
2013-03-22 10:51:00,29.3,20.0,29.98,ESE,114,1.0,6.0,68,0.00,,,0.00,Wunderground v.1.15,2013-03-22 15:51:00,
2013-03-22 10:57:00,29.4,19.8,29.98,ESE,109,1.0,6.0,67,0.00,,,0.00,Wunderground v.1.15,2013-03-22 15:57:00,
2013-03-22 11:02:00,29.5,19.9,29.98,ESE,102,1.0,6.0,67,0.00,,,0.00,Wunderground v.1.15,2013-03-22 16:02:00,
2013-03-22 11:09:00,29.7,19.7,29.99,ESE,120,1.0,6.0,66,0.00,,,0.00,Wunderground v.1.15,2013-03-22 16:09:00,
2013-03-22 11:15:00,29.8,19.5,29.98,East,91,1.0,6.0,65,0.00,,,0.00,Wunderground v.1.15,2013-03-22 16:15:00,
2013-03-22 11:22:00,29.9,19.9,29.98,East,93,2.0,6.0,66,0.00,,,0.00,Wunderground v.1.15,2013-03-22 16:22:00,
2013-03-22 11:27:00,30.1,20.1,29.98,East,99,2.0,6.0,66,0.00,,,0.00,Wunderground v.1.15,2013-03-22 16:27:00,
2013-03-22 11:32:00,30.2,19.8,29.98,East,98,2.0,6.0,65,0.00,,,0.00,Wunderground v.1.15,2013-03-22 16:32:00,
2013-03-22 11:38:00,30.3,19.9,29.98,East,99,1.0,6.0,65,0.00,,,0.00,Wunderground v.1.15,2013-03-22 16:38:00,
2013-03-22 11:43:00,30.2,19.5,29.99,ESE,111,2.0,6.0,64,0.00,,,0.00,Wunderground v.1.15,2013-03-22 16:43:00,
2013-03-22 11:48:00,30.2,19.8,29.99,ESE,116,2.0,6.0,65,0.00,,,0.00,Wunderground v.1.15,2013-03-22 16:48:00,
2013-03-22 11:54:00,30.4,20.0,29.99,ESE,103,1.0,6.0,65,0.00,,,0.00,Wunderground v.1.15,2013-03-22 16:54:00,
2013-03-22 12:00:00,30.5,20.1,29.99,SE,133,1.0,6.0,65,0.00,,,0.00,Wunderground v.1.15,2013-03-22 17:00:00,
2013-03-22 12:07:00,30.6,20.2,29.99,ESE,102,2.0,6.0,65,0.00,,,0.00,Wunderground v.1.15,2013-03-22 17:07:00,
2013-03-22 12:12:00,30.7,20.3,29.99,ENE,62,1.0,6.0,65,0.00,,,0.00,Wunderground v.1.15,2013-03-22 17:12:00,
2013-03-22 12:18:00,30.9,20.5,29.99,SE,130,1.0,6.0,65,0.00,,,0.00,Wunderground v.1.15,2013-03-22 17:18:00,
2013-03-22 12:24:00,31.0,20.6,29.99,East,88,1.0,6.0,65,0.00,,,0.00,Wunderground v.1.15,2013-03-22 17:24:00,
2013-03-22 12:30:00,31.1,20.7,29.99,East,84,1.0,6.0,65,0.00,,,0.00,Wunderground v.1.15,2013-03-22 17:30:00,
2013-03-22 12:35:00,31.2,20.8,29.99,East,93,1.0,6.0,65,0.00,,,0.00,Wunderground v.1.15,2013-03-22 17:35:00,
2013-03-22 12:41:00,31.3,20.9,29.99,ESE,121,2.0,6.0,65,0.00,,,0.00,Wunderground v.1.15,2013-03-22 17:41:00,
2013-03-22 12:47:00,31.4,21.0,29.99,ESE,115,1.0,6.0,65,0.00,,,0.00,Wunderground v.1.15,2013-03-22 17:47:00,
2013-03-22 12:53:00,31.6,21.2,29.99,ESE,120,1.0,6.0,65,0.00,,,0.00,Wunderground v.1.15,2013-03-22 17:53:00,
2013-03-22 12:58:00,31.9,21.1,29.99,SSW,199,1.0,6.0,64,0.00,,,0.00,Wunderground v.1.15,2013-03-22 17:58:00,
2013-03-22 13:04:00,32.1,20.9,29.99,SE,124,1.0,6.0,63,0.00,,,0.00,Wunderground v.1.15,2013-03-22 18:04:00,
2013-03-22 13:10:00,32.1,20.5,29.99,ENE,70,1.0,1.0,62,0.00,,,0.00,Wunderground v.1.15,2013-03-22 18:10:00,
2013-03-22 13:15:00,32.1,20.5,29.99,ESE,108,1.0,6.0,62,0.00,,,0.00,Wunderground v.1.15,2013-03-22 18:15:00,
2013-03-22 13:21:00,32.3,20.0,29.98,SSE,156,3.0,5.0,62,0.00,,,0.00,weatherlink.com 1.10,2013-03-22 18:21:00,
2013-03-22 13:26:00,32.6,21.0,29.98,ESE,122,2.0,6.0,62,0.00,,,0.00,Wunderground v.1.15,2013-03-22 18:26:00,
2013-03-22 13:32:00,33.0,21.8,29.98,SE,128,1.0,6.0,63,0.00,,,0.00,Wunderground v.1.15,2013-03-22 18:32:00,
2013-03-22 13:37:00,33.4,21.4,29.98,ESE,103,1.0,6.0,61,0.00,,,0.00,Wunderground v.1.15,2013-03-22 18:37:00,
2013-03-22 13:43:00,33.6,20.8,29.98,SE,124,2.0,6.0,59,0.00,,,0.00,Wunderground v.1.15,2013-03-22 18:43:00,
2013-03-22 13:48:00,33.7,20.5,29.97,East,87,3.0,6.0,58,0.00,,,0.00,Wunderground v.1.15,2013-03-22 18:48:00,
2013-03-22 13:53:00,33.6,20.0,29.97,ESE,116,3.0,6.0,57,0.00,,,0.00,Wunderground v.1.15,2013-03-22 18:53:00,
2013-03-22 13:59:00,33.6,20.4,29.97,ESE,118,2.0,6.0,58,0.00,,,0.00,Wunderground v.1.15,2013-03-22 18:59:00,
2013-03-22 14:05:00,33.7,20.5,29.97,ESE,106,2.0,6.0,58,0.00,,,0.00,Wunderground v.1.15,2013-03-22 19:05:00,
2013-03-22 14:10:00,33.7,20.1,29.97,ESE,105,3.0,3.0,57,0.00,,,0.00,Wunderground v.1.15,2013-03-22 19:10:00,
2013-03-22 14:16:00,34.2,20.9,29.96,East,87,2.0,6.0,58,0.00,,,0.00,Wunderground v.1.15,2013-03-22 19:16:00,
2013-03-22 14:21:00,34.4,20.3,29.95,ESE,122,3.0,6.0,56,0.00,,,0.00,Wunderground v.1.15,2013-03-22 19:21:00,
2013-03-22 14:27:00,34.8,20.7,29.95,ENE,76,3.0,6.0,56,0.00,,,0.00,Wunderground v.1.15,2013-03-22 19:27:00,
2013-03-22 14:32:00,34.7,19.7,29.95,East,90,3.0,6.0,54,0.00,,,0.00,Wunderground v.1.15,2013-03-22 19:32:00,
2013-03-22 14:37:00,34.8,20.3,29.95,SE,126,3.0,6.0,55,0.00,,,0.00,Wunderground v.1.15,2013-03-22 19:37:00,
2013-03-22 14:43:00,35.3,20.3,29.94,ESE,104,3.0,6.0,54,0.00,,,0.00,Wunderground v.1.15,2013-03-22 19:43:00,
2013-03-22 14:49:00,35.2,19.3,29.94,SE,132,4.0,7.0,52,0.00,,,0.00,Wunderground v.1.15,2013-03-22 19:49:00,
2013-03-22 14:54:00,35.3,19.4,29.94,SE,132,4.0,6.0,52,0.00,,,0.00,Wunderground v.1.15,2013-03-22 19:54:00,
2013-03-22 15:00:00,35.3,19.9,29.94,ESE,109,4.0,4.0,53,0.00,,,0.00,Wunderground v.1.15,2013-03-22 20:00:00,
2013-03-22 15:05:00,35.2,18.9,29.94,ESE,123,4.0,6.0,51,0.00,,,0.00,Wunderground v.1.15,2013-03-22 20:05:00,
2013-03-22 15:10:00,35.3,19.0,29.94,ESE,116,4.0,10.0,52,0.00,,,0.00,weatherlink.com 1.10,2013-03-22 20:10:00,
2013-03-22 15:16:00,35.4,19.0,29.95,ESE,102,2.0,6.0,51,0.00,,,0.00,Wunderground v.1.15,2013-03-22 20:16:00,
2013-03-22 15:21:00,35.3,19.4,29.94,East,95,2.0,6.0,52,0.00,,,0.00,Wunderground v.1.15,2013-03-22 20:21:00,
2013-03-22 15:27:00,35.2,18.9,29.95,East,100,3.0,6.0,51,0.00,,,0.00,Wunderground v.1.15,2013-03-22 20:27:00,
2013-03-22 15:32:00,35.1,19.2,29.95,ENE,78,2.0,6.0,52,0.00,,,0.00,Wunderground v.1.15,2013-03-22 20:32:00,
2013-03-22 15:38:00,35.2,19.0,29.95,ESE,108,2.0,7.0,52,0.00,,,0.00,weatherlink.com 1.10,2013-03-22 20:38:00,
2013-03-22 15:44:00,35.3,19.0,29.95,ESE,110,3.0,6.0,51,0.00,,,0.00,Wunderground v.1.15,2013-03-22 20:44:00,
2013-03-22 15:50:00,35.0,18.7,29.95,East,96,2.0,6.0,51,0.00,,,0.00,Wunderground v.1.15,2013-03-22 20:50:00,
2013-03-22 15:56:00,34.9,18.6,29.95,East,93,1.0,6.0,51,0.00,,,0.00,Wunderground v.1.15,2013-03-22 20:56:00,
2013-03-22 16:02:00,35.1,19.2,29.95,ESE,106,1.0,6.0,52,0.00,,,0.00,Wunderground v.1.15,2013-03-22 21:02:00,
2013-03-22 16:07:00,35.2,18.4,29.96,SE,124,1.0,6.0,50,0.00,,,0.00,Wunderground v.1.15,2013-03-22 21:07:00,
2013-03-22 16:15:00,35.3,19.0,29.95,East,93,1.0,6.0,51,0.00,,,0.00,Wunderground v.1.15,2013-03-22 21:15:00,
2013-03-22 16:21:00,35.2,18.4,29.96,ENE,77,1.0,6.0,50,0.00,,,0.00,Wunderground v.1.15,2013-03-22 21:21:00,
2013-03-22 16:26:00,35.2,18.4,29.96,East,87,1.0,6.0,50,0.00,,,0.00,Wunderground v.1.15,2013-03-22 21:26:00,
2013-03-22 16:31:00,35.2,18.9,29.95,ENE,75,1.0,6.0,51,0.00,,,0.00,Wunderground v.1.15,2013-03-22 21:31:00,
2013-03-22 16:36:00,35.0,18.2,29.95,East,79,2.0,6.0,50,0.00,,,0.00,Wunderground v.1.15,2013-03-22 21:36:00,
2013-03-22 16:42:00,35.0,18.2,29.96,ESE,106,1.0,6.0,50,0.00,,,0.00,Wunderground v.1.15,2013-03-22 21:42:00,
2013-03-22 16:48:00,35.1,18.8,29.96,NE,39,0.0,6.0,51,0.00,,,0.00,Wunderground v.1.15,2013-03-22 21:48:00,
2013-03-22 16:54:00,35.3,19.0,29.96,ESE,114,0.0,6.0,51,0.00,,,0.00,Wunderground v.1.15,2013-03-22 21:54:00,
2013-03-22 16:59:00,35.4,18.6,29.96,ENE,75,1.0,6.0,50,0.00,,,0.00,Wunderground v.1.15,2013-03-22 21:59:00,
2013-03-22 17:04:00,35.3,18.5,29.96,ENE,76,1.0,6.0,50,0.00,,,0.00,Wunderground v.1.15,2013-03-22 22:04:00,
2013-03-22 17:09:00,35.3,19.0,29.96,ENE,68,1.0,6.0,51,0.00,,,0.00,Wunderground v.1.15,2013-03-22 22:09:00,
2013-03-22 17:15:00,35.3,18.5,29.96,East,83,2.0,6.0,50,0.00,,,0.00,Wunderground v.1.15,2013-03-22 22:15:00,
2013-03-22 17:21:00,35.3,19.4,29.96,East,86,2.0,6.0,52,0.00,,,0.00,Wunderground v.1.15,2013-03-22 22:21:00,
2013-03-22 17:27:00,35.2,18.4,29.96,ENE,75,3.0,6.0,50,0.00,,,0.00,Wunderground v.1.15,2013-03-22 22:27:00,
2013-03-22 17:32:00,35.2,18.9,29.96,East,83,3.0,6.0,51,0.00,,,0.00,Wunderground v.1.15,2013-03-22 22:32:00,
2013-03-22 17:38:00,35.2,18.4,29.96,East,95,3.0,6.0,50,0.00,,,0.00,Wunderground v.1.15,2013-03-22 22:38:00,
2013-03-22 17:44:00,35.2,18.4,29.96,ENE,74,3.0,6.0,50,0.00,,,0.00,Wunderground v.1.15,2013-03-22 22:44:00,
2013-03-22 17:49:00,35.2,18.4,29.96,ENE,75,3.0,6.0,50,0.00,,,0.00,Wunderground v.1.15,2013-03-22 22:49:00,
2013-03-22 17:54:00,35.1,18.0,29.96,East,83,3.0,9.0,50,0.00,,,0.00,weatherlink.com 1.10,2013-03-22 22:54:00,
2013-03-22 18:00:00,35.1,18.8,29.95,East,99,4.0,4.0,51,0.00,,,0.00,Wunderground v.1.15,2013-03-22 23:00:00,
2013-03-22 18:07:00,35.1,18.3,29.96,East,90,3.0,6.0,50,0.00,,,0.00,Wunderground v.1.15,2013-03-22 23:07:00,
2013-03-22 18:13:00,35.1,18.3,29.96,ESE,105,3.0,6.0,50,0.00,,,0.00,Wunderground v.1.15,2013-03-22 23:13:00,
2013-03-22 18:19:00,35.1,18.3,29.96,East,93,3.0,6.0,50,0.00,,,0.00,Wunderground v.1.15,2013-03-22 23:19:00,
2013-03-22 18:25:00,35.0,18.0,29.95,East,95,4.0,7.0,50,0.00,,,0.00,weatherlink.com 1.10,2013-03-22 23:25:00,
2013-03-22 18:30:00,35.0,18.2,29.95,ESE,102,3.0,3.0,50,0.00,,,0.00,Wunderground v.1.15,2013-03-22 23:30:00,
2013-03-22 18:36:00,35.0,19.1,29.95,ENE,73,2.0,6.0,52,0.00,,,0.00,Wunderground v.1.15,2013-03-22 23:36:00,
2013-03-22 18:41:00,35.0,18.2,29.95,ESE,104,3.0,6.0,50,0.00,,,0.00,Wunderground v.1.15,2013-03-22 23:41:00,
2013-03-22 18:46:00,34.9,18.1,29.95,ESE,106,4.0,6.0,50,0.00,,,0.00,Wunderground v.1.15,2013-03-22 23:46:00,
2013-03-22 18:52:00,34.8,18.0,29.95,East,90,3.0,6.0,50,0.00,,,0.00,Wunderground v.1.15,2013-03-22 23:52:00,
2013-03-22 18:58:00,34.7,17.9,29.95,East,80,4.0,6.0,50,0.00,,,0.00,Wunderground v.1.15,2013-03-22 23:58:00,
2013-03-22 19:04:00,34.6,18.3,29.95,East,93,4.0,6.0,51,0.00,,,0.00,Wunderground v.1.15,2013-03-23 00:04:00,
2013-03-22 19:09:00,34.5,17.8,29.95,East,100,4.0,8.0,50,0.00,,,0.00,Wunderground v.1.15,2013-03-23 00:09:00,
2013-03-22 19:15:00,34.4,17.7,29.95,East,92,4.0,6.0,50,0.00,,,0.00,Wunderground v.1.15,2013-03-23 00:15:00,
2013-03-22 19:20:00,34.4,18.1,29.96,East,83,3.0,3.0,51,0.00,,,0.00,Wunderground v.1.15,2013-03-23 00:20:00,
2013-03-22 19:25:00,34.3,18.0,29.96,East,81,3.0,6.0,51,0.00,,,0.00,Wunderground v.1.15,2013-03-23 00:25:00,
2013-03-22 19:30:00,34.3,18.5,29.96,ENE,72,3.0,6.0,52,0.00,,,0.00,Wunderground v.1.15,2013-03-23 00:30:00,
2013-03-22 19:35:00,34.2,18.4,29.97,East,97,2.0,6.0,52,0.00,,,0.00,Wunderground v.1.15,2013-03-23 00:35:00,
2013-03-22 19:41:00,34.2,19.0,29.96,East,87,2.0,5.0,53,0.00,,,0.00,weatherlink.com 1.10,2013-03-23 00:41:00,
2013-03-22 19:46:00,34.1,18.7,29.97,East,82,2.0,6.0,53,0.00,,,0.00,Wunderground v.1.15,2013-03-23 00:46:00,
2013-03-22 19:51:00,34.1,19.2,29.97,ENE,75,1.0,6.0,54,0.00,,,0.00,Wunderground v.1.15,2013-03-23 00:51:00,
2013-03-22 19:57:00,34.0,18.6,29.97,ENE,77,0.0,6.0,53,0.00,,,0.00,Wunderground v.1.15,2013-03-23 00:57:00,
2013-03-22 20:03:00,33.9,18.6,29.97,ENE,77,0.0,6.0,53,0.00,,,0.00,Wunderground v.1.15,2013-03-23 01:03:00,
2013-03-22 20:09:00,33.9,18.6,29.98,ENE,77,0.0,6.0,53,0.00,,,0.00,Wunderground v.1.15,2013-03-23 01:09:00,
2013-03-22 20:15:00,33.9,19.0,29.98,ENE,77,0.0,0.0,54,0.00,,,0.00,weatherlink.com 1.10,2013-03-23 01:15:00,
2013-03-22 20:21:00,33.9,19.4,29.98,ENE,77,0.0,6.0,55,0.00,,,0.00,Wunderground v.1.15,2013-03-23 01:21:00,
2013-03-22 20:27:00,33.8,19.3,29.98,ENE,77,0.0,6.0,55,0.00,,,0.00,Wunderground v.1.15,2013-03-23 01:27:00,
2013-03-22 20:33:00,33.8,19.3,29.99,ENE,77,0.0,6.0,55,0.00,,,0.00,Wunderground v.1.15,2013-03-23 01:33:00,
2013-03-22 20:38:00,33.7,19.2,29.99,East,88,0.0,6.0,55,0.00,,,0.00,Wunderground v.1.15,2013-03-23 01:38:00,
2013-03-22 20:43:00,33.7,19.2,29.99,ENE,78,1.0,6.0,55,0.00,,,0.00,Wunderground v.1.15,2013-03-23 01:43:00,
2013-03-22 20:49:00,33.7,19.7,29.99,ENE,78,1.0,6.0,56,0.00,,,0.00,Wunderground v.1.15,2013-03-23 01:49:00,
2013-03-22 20:54:00,33.6,19.6,29.99,ENE,78,0.0,6.0,56,0.00,,,0.00,Wunderground v.1.15,2013-03-23 01:54:00,
2013-03-22 21:00:00,33.5,19.9,29.99,ENE,78,0.0,6.0,57,0.00,,,0.00,Wunderground v.1.15,2013-03-23 02:00:00,
2013-03-22 21:05:00,33.4,19.8,29.99,ENE,78,0.0,6.0,57,0.00,,,0.00,Wunderground v.1.15,2013-03-23 02:05:00,
2013-03-22 21:12:00,33.4,20.2,29.99,ENE,78,0.0,6.0,58,0.00,,,0.00,Wunderground v.1.15,2013-03-23 02:12:00,
2013-03-22 21:18:00,33.3,20.1,30.00,ENE,78,0.0,6.0,58,0.00,,,0.00,Wunderground v.1.15,2013-03-23 02:18:00,
2013-03-22 21:23:00,33.3,20.1,30.00,ENE,78,0.0,6.0,58,0.00,,,0.00,Wunderground v.1.15,2013-03-23 02:23:00,
2013-03-22 21:29:00,33.3,20.1,30.00,ENE,78,0.0,6.0,58,0.00,,,0.00,Wunderground v.1.15,2013-03-23 02:29:00,
2013-03-22 21:35:00,33.2,20.4,30.00,ENE,78,0.0,6.0,59,0.00,,,0.00,Wunderground v.1.15,2013-03-23 02:35:00,
2013-03-22 21:40:00,33.2,20.0,30.00,ENE,78,0.0,6.0,58,0.00,,,0.00,Wunderground v.1.15,2013-03-23 02:40:00,
2013-03-22 21:46:00,33.2,20.0,30.00,ENE,78,0.0,6.0,58,0.00,,,0.00,Wunderground v.1.15,2013-03-23 02:46:00,
2013-03-22 21:52:00,33.1,20.3,30.00,ENE,78,0.0,6.0,59,0.00,,,0.00,Wunderground v.1.15,2013-03-23 02:52:00,
2013-03-22 21:57:00,33.1,20.7,30.00,ENE,78,1.0,6.0,60,0.00,,,0.00,Wunderground v.1.15,2013-03-23 02:57:00,
2013-03-22 22:04:00,33.1,20.3,30.00,East,79,1.0,6.0,59,0.00,,,0.00,Wunderground v.1.15,2013-03-23 03:04:00,
2013-03-22 22:09:00,33.1,20.7,30.00,East,79,1.0,6.0,60,0.00,,,0.00,Wunderground v.1.15,2013-03-23 03:09:00,
2013-03-22 22:15:00,33.1,20.7,30.00,East,79,0.0,6.0,60,0.00,,,0.00,Wunderground v.1.15,2013-03-23 03:15:00,
2013-03-22 22:20:00,33.1,20.7,30.00,East,79,0.0,6.0,60,0.00,,,0.00,Wunderground v.1.15,2013-03-23 03:20:00,
2013-03-22 22:26:00,33.0,20.6,30.00,East,81,0.0,6.0,60,0.00,,,0.00,Wunderground v.1.15,2013-03-23 03:26:00,
2013-03-22 22:32:00,33.0,21.0,30.00,East,85,2.0,6.0,61,0.00,,,0.00,Wunderground v.1.15,2013-03-23 03:32:00,
2013-03-22 22:39:00,33.0,21.0,29.99,East,80,2.0,6.0,61,0.00,,,0.00,Wunderground v.1.15,2013-03-23 03:39:00,
2013-03-22 22:45:00,33.0,20.6,29.99,East,88,1.0,6.0,60,0.00,,,0.00,Wunderground v.1.15,2013-03-23 03:45:00,
2013-03-22 22:51:00,33.0,21.0,30.00,East,88,0.0,6.0,61,0.00,,,0.00,Wunderground v.1.15,2013-03-23 03:51:00,
2013-03-22 22:57:00,32.9,20.5,30.00,East,88,0.0,6.0,60,0.00,,,0.00,Wunderground v.1.15,2013-03-23 03:57:00,
2013-03-22 23:00:00,32.9,20.5,30.00,East,88,0.0,6.0,60,0.00,,,0.00,Wunderground v.1.15,2013-03-23 04:00:00,
2013-03-22 23:01:00,32.9,20.5,30.00,East,88,0.0,6.0,60,0.00,,,0.00,Wunderground v.1.15,2013-03-23 04:01:00,
2013-03-22 23:04:00,32.9,20.9,30.00,East,88,0.0,6.0,61,0.00,,,0.00,Wunderground v.1.15,2013-03-23 04:04:00,
2013-03-22 23:09:00,32.9,20.9,30.00,East,88,0.0,6.0,61,0.00,,,0.00,Wunderground v.1.15,2013-03-23 04:09:00,
2013-03-22 23:11:00,32.9,20.9,30.00,East,88,0.0,6.0,61,0.00,,,0.00,Wunderground v.1.15,2013-03-23 04:11:00,
2013-03-22 23:17:00,32.9,20.5,30.00,East,88,0.0,6.0,60,0.00,,,0.00,Wunderground v.1.15,2013-03-23 04:17:00,
2013-03-22 23:23:00,32.9,20.9,30.00,East,88,0.0,6.0,61,0.00,,,0.00,Wunderground v.1.15,2013-03-23 04:23:00,
2013-03-22 23:28:00,32.9,20.9,29.99,East,87,0.0,6.0,61,0.00,,,0.00,Wunderground v.1.15,2013-03-23 04:28:00,
2013-03-22 23:33:00,32.9,21.3,29.99,East,88,1.0,6.0,62,0.00,,,0.00,Wunderground v.1.15,2013-03-23 04:33:00,
2013-03-22 23:39:00,32.8,21.2,29.99,East,83,0.0,6.0,62,0.00,,,0.00,Wunderground v.1.15,2013-03-23 04:39:00,
2013-03-22 23:45:00,32.8,20.8,30.00,East,79,0.0,6.0,61,0.00,,,0.00,Wunderground v.1.15,2013-03-23 04:45:00,
2013-03-22 23:50:00,32.8,21.2,29.99,East,79,0.0,6.0,62,0.00,,,0.00,Wunderground v.1.15,2013-03-23 04:50:00,
2013-03-22 23:56:00,32.8,20.8,29.99,East,79,0.0,6.0,61,0.00,,,0.00,Wunderground v.1.15,2013-03-23 04:56:00,